Syracuse, NY

9:13 PM EST on November 16, 2019 (GMT -0500)
Syracuse Hancock International

Weather History for KSYR - October, 2019

Change the Weather History Date:

Wednesday, October 16, 2019

  Actual Average Record
Temperature  
Mean Temperature 52 °F 50 °F  
Max Temperature 62 °F 60 °F 82 °F (1962)
Min Temperature 42 °F 41 °F 27 °F (1940)
Degree Days  
Heating Degree Days 13 15  
Month to date heating degree days 179 195  
Since 1 July heating degree days 254 362  
Cooling Degree Days 0 0  
Month to date cooling degree days 11 0  
Year to date cooling degree days 622 565  
Growing Degree Days 2 (Base 50)    
Moisture  
Dew Point 47 °F    
Average Humidity 81    
Maximum Humidity 94    
Minimum Humidity 59    
Precipitation  
Precipitation 1.09 in 0.11 in 1.29 in (1955)
Month to date precipitation 2.76 1.80  
Year to date precipitation 36.89 30.08  
Snow  
Snow 0.00 in 0.00 in 0.60 in (1970)
Month to date snowfall 0.0 0.0  
Since 1 July snowfall T 0.0  
Since 1 September snowfall T 0.0  
Snow Depth 0.00 in    
Sea Level Pressure  
Sea Level Pressure 29.60 in    
Wind  
Wind Speed 10 mph ()    
Max Wind Speed 28 mph    
Max Gust Speed 36 mph    
Visibility 7.0 miles    
Events Rain    
T = Trace of Precipitation, MM = Missing Value Source: Averaged Metar Reports

Daily Weather History Graph

Daily Weather History Graph

Search for Another Location

Airport or City:

Astronomy

Oct. 16, 2019 Rise Set
Actual Time 7:18 AM EDT 6:20 PM EDT
Civil Twilight 6:50 AM EDT 6:49 PM EDT
Nautical Twilight 6:17 AM EDT 7:21 PM EDT
Astronomical Twilight 5:44 AM EDT 7:54 PM EDT
Moon 8:08 PM EDT (10/16) 9:50 AM EDT (10/16)
Length of Visible Light 11h 58m
Length of Day
11h 01m
Waning Gibbous, 93% of the Moon is Illuminated
Oct 16
Waning Gibbous
Oct 21
Last Quarter
Oct 27
New
Nov 4
First Quarter
Nov 12
Full

Hourly Weather History & Observations

Time (EDT) Temp. Windchill Dew Point Humidity Pressure Visibility Wind Dir Wind Speed Gust Speed Precip Events Conditions
12:54 AM 42.1 °F 37.1 °F 36.0 °F 79% 29.93 in 10.0 mi East 8.1 mph - N/A   Mostly Cloudy
1:54 AM 45.0 °F 40.6 °F 37.0 °F 74% 29.89 in 10.0 mi ENE 8.1 mph - N/A   Mostly Cloudy
2:54 AM 48.0 °F - 37.9 °F 68% 29.87 in 10.0 mi East 8.1 mph - N/A   Scattered Clouds
3:54 AM 50.0 °F - 39.0 °F 66% 29.84 in 10.0 mi ESE 9.2 mph - N/A   Partly Cloudy
4:54 AM 54.0 °F - 39.9 °F 59% 29.81 in 10.0 mi SE 13.8 mph - N/A   Mostly Cloudy
5:54 AM 54.0 °F - 41.0 °F 62% 29.78 in 10.0 mi SE 11.5 mph - N/A   Mostly Cloudy
6:54 AM 54.0 °F - 43.0 °F 66% 29.77 in 10.0 mi SE 9.2 mph 18.4 mph N/A   Mostly Cloudy
7:54 AM 54.0 °F - 45.0 °F 72% 29.73 in 10.0 mi SSE 13.8 mph 24.2 mph N/A   Mostly Cloudy
8:54 AM 57.0 °F - 46.0 °F 67% 29.70 in 10.0 mi SE 12.7 mph 23.0 mph N/A   Mostly Cloudy
9:54 AM 59.0 °F - 46.9 °F 64% 29.69 in 10.0 mi SSE 15.0 mph 24.2 mph N/A   Mostly Cloudy
10:54 AM 61.0 °F - 48.0 °F 62% 29.66 in 10.0 mi SSE 24.2 mph 34.5 mph 0.00 in Rain Light Rain
11:54 AM 61.0 °F - 48.9 °F 64% 29.64 in 10.0 mi SSE 18.4 mph 29.9 mph 0.00 in   Overcast
12:54 PM 62.1 °F - 50.0 °F 65% 29.63 in 10.0 mi South 12.7 mph 28.8 mph N/A   Overcast
1:54 PM 62.1 °F - 50.0 °F 65% 29.61 in 10.0 mi SE 16.1 mph 23.0 mph N/A   Overcast
2:54 PM 59.0 °F - 53.1 °F 81% 29.60 in 5.0 mi SE 10.4 mph - 0.01 in Rain Rain
3:54 PM 57.0 °F - 54.0 °F 89% 29.56 in 5.0 mi East 8.1 mph - 0.09 in Rain Rain
4:54 PM 55.9 °F - 53.1 °F 90% 29.51 in 5.0 mi East 9.2 mph - 0.12 in Rain Rain
5:32 PM 55.0 °F - 53.1 °F 93% 29.48 in 2.5 mi ENE 12.7 mph - 0.10 in Rain Rain
5:41 PM 55.0 °F - 52.0 °F 89% 29.46 in 3.0 mi ENE 17.3 mph - 0.12 in Rain Rain
5:48 PM 55.4 °F - 53.6 °F 94% 29.47 in 4.0 mi East 11.5 mph 20.7 mph 0.13 in Rain Rain
5:54 PM 55.0 °F - 53.1 °F 93% 29.47 in 4.0 mi South 9.2 mph - 0.14 in Rain Rain
6:02 PM 55.0 °F - 53.1 °F 93% 29.47 in 2.0 mi SE 9.2 mph - 0.04 in Rain Heavy Rain
6:18 PM 54.0 °F - 52.0 °F 93% 29.49 in 1.0 mi West 18.4 mph 26.5 mph 0.11 in   Overcast
6:29 PM 50.0 °F - 48.0 °F 93% 29.50 in 2.0 mi West 16.1 mph - 0.28 in Rain Heavy Rain
6:32 PM 50.0 °F - 48.0 °F 93% 29.50 in 3.0 mi West 17.3 mph - 0.28 in Rain Rain
6:46 PM 50.0 °F - 48.0 °F 93% 29.51 in 5.0 mi West 12.7 mph 21.9 mph 0.31 in Rain Rain
6:54 PM 50.0 °F - 48.0 °F 93% 29.51 in 6.0 mi West 11.5 mph - 0.35 in Rain Rain
7:25 PM 50.0 °F - 46.9 °F 89% 29.51 in 5.0 mi West 13.8 mph - 0.10 in Rain Rain
7:54 PM 50.0 °F - 46.9 °F 89% 29.50 in 9.0 mi West 10.4 mph - 0.16 in Rain Rain
8:54 PM 50.0 °F - 48.0 °F 93% 29.50 in 6.0 mi West 5.8 mph - 0.11 in Rain Light Rain
9:54 PM 50.0 °F - 48.0 °F 93% 29.49 in 6.0 mi Calm Calm - 0.07 in Rain Light Rain
10:54 PM 48.9 °F - 46.9 °F 93% 29.45 in 10.0 mi Calm Calm - 0.04 in Rain Light Rain
11:36 PM 48.9 °F - 46.9 °F 93% 29.43 in 9.0 mi Calm Calm - 0.00 in   Overcast
11:54 PM 48.9 °F - 46.9 °F 93% 29.42 in 7.0 mi Calm Calm - 0.00 in   Overcast